When you browse on this site, cookies collect data to enhance your experience and personalize the content and advertising you see.
Visit our Privacy Policy to learn more. By continuing to use the site, you agree to this use of cookies and data.
  • In Spain
  • List of Countries
  • For 7 days
  • Water Temperature
  • Satellite Maps
  • Weather Map
  • Weather Widgets
  • user-avatar
    Login

    Hourly Weather Blonnaya

    Today, 18 July, Thursday

    Time Temperature Precipitation Wind Pressure Humidity
    00:00 +13°C° 0.2 mm 1 mps 738 mmHg 89%
    01:00 +13°C° 0.2 mm 2 mps 738 mmHg 92%
    02:00 +13°C° 0 mm 2 mps 738 mmHg 96%
    03:00 +13°C° 0.4 mm 2 mps 738 mmHg 97%
    04:00 +13°C° 0.4 mm 1 mps 738 mmHg 97%
    05:00 +13°C° 0.4 mm 1 mps 738 mmHg 98%
    06:00 +14°C° 0.8 mm 1 mps 738 mmHg 97%
    07:00 +14°C° 0.8 mm 2 mps 738 mmHg 97%
    08:00 +14°C° 0.8 mm 2 mps 738 mmHg 96%
    09:00 +14°C° 0.4 mm 2 mps 738 mmHg 96%
    10:00 +13°C° 0.4 mm 3 mps 738 mmHg 96%
    11:00 +13°C° 0.4 mm 3 mps 738 mmHg 96%
    12:00 +13°C° 0.2 mm 3 mps 738 mmHg 95%
    13:00 +13°C° 0.2 mm 4 mps 738 mmHg 94%
    14:00 +13°C° 0.2 mm 4 mps 738 mmHg 94%
    15:00 +13°C° 0.2 mm 4 mps 738 mmHg 95%
    16:00 +13°C° 0.2 mm 4 mps 738 mmHg 95%
    17:00 +13°C° 0.2 mm 4 mps 738 mmHg 96%
    18:00 +13°C° 0.2 mm 4 mps 738 mmHg 96%
    19:00 +13°C° 0.2 mm 4 mps 738 mmHg 97%
    20:00 +13°C° 0.2 mm 4 mps 738 mmHg 97%
    21:00 +13°C° 0.6 mm 4 mps 738 mmHg 97%
    22:00 +13°C° 0.6 mm 4 mps 738 mmHg 98%
    23:00 +13°C° 0.6 mm 4 mps 738 mmHg 98%

    Tomorrow, 19 July, Friday

    Time Temperature Precipitation Wind Pressure Humidity
    00:00 +13°C° 0.9 mm 4 mps 738 mmHg 98%
    01:00 +13°C° 0.9 mm 4 mps 738 mmHg 98%
    02:00 +13°C° 0.9 mm 4 mps 738 mmHg 98%
    03:00 +13°C° 0.7 mm 4 mps 738 mmHg 98%
    04:00 +14°C° 0.7 mm 4 mps 738 mmHg 98%
    05:00 +14°C° 0.7 mm 4 mps 739 mmHg 98%
    06:00 +14°C° 0.8 mm 4 mps 739 mmHg 97%
    07:00 +14°C° 0.8 mm 5 mps 739 mmHg 97%
    08:00 +14°C° 0.8 mm 5 mps 740 mmHg 97%
    09:00 +14°C° 0.3 mm 5 mps 740 mmHg 96%
    10:00 +15°C° 0.3 mm 5 mps 740 mmHg 95%
    11:00 +15°C° 0.3 mm 5 mps 741 mmHg 94%
    12:00 +15°C° 0.1 mm 6 mps 741 mmHg 91%
    13:00 +16°C° 0.1 mm 6 mps 741 mmHg 88%
    14:00 +16°C° 0.1 mm 6 mps 741 mmHg 85%
    15:00 +17°C° 0 mm 6 mps 742 mmHg 82%
    16:00 +17°C° 0 mm 6 mps 742 mmHg 80%
    17:00 +17°C° 0 mm 5 mps 743 mmHg 77%
    18:00 +16°C° 0 mm 5 mps 743 mmHg 81%
    19:00 +15°C° 0 mm 4 mps 743 mmHg 85%
    20:00 +14°C° 0 mm 3 mps 743 mmHg 90%
    21:00 +14°C° 0 mm 3 mps 743 mmHg 88%
    22:00 +14°C° 0 mm 3 mps 744 mmHg 87%
    23:00 +14°C° 0 mm 4 mps 744 mmHg 85%

    Day after tomorrow, 20 July, Saturday

    Time Temperature Precipitation Wind Pressure Humidity
    00:00 +14°C° 0 mm 3 mps 744 mmHg 87%
    01:00 +13°C° 0 mm 3 mps 744 mmHg 88%
    02:00 +13°C° 0 mm 3 mps 744 mmHg 89%
    03:00 +13°C° 0 mm 3 mps 745 mmHg 90%
    04:00 +13°C° 0 mm 3 mps 745 mmHg 90%
    05:00 +13°C° 0 mm 3 mps 745 mmHg 91%
    06:00 +14°C° 0 mm 3 mps 745 mmHg 87%
    07:00 +16°C° 0 mm 3 mps 746 mmHg 83%
    08:00 +17°C° 0 mm 3 mps 746 mmHg 79%
    09:00 +19°C° 0 mm 4 mps 746 mmHg 73%
    10:00 +20°C° 0 mm 4 mps 747 mmHg 67%
    11:00 +22°C° 0 mm 5 mps 747 mmHg 61%
    12:00 +22°C° 0.1 mm 5 mps 747 mmHg 61%
    13:00 +22°C° 0.1 mm 5 mps 747 mmHg 61%
    14:00 +23°C° 0.1 mm 5 mps 747 mmHg 61%
    15:00 +22°C° 0 mm 5 mps 747 mmHg 64%
    16:00 +22°C° 0 mm 5 mps 748 mmHg 66%
    17:00 +22°C° 0 mm 4 mps 748 mmHg 68%
    18:00 +20°C° 0.2 mm 4 mps 748 mmHg 75%
    19:00 +19°C° 0.2 mm 3 mps 748 mmHg 82%
    20:00 +17°C° 0.2 mm 2 mps 748 mmHg 89%
    21:00 +16°C° 0 mm 2 mps 748 mmHg 91%
    22:00 +16°C° 0 mm 2 mps 748 mmHg 92%
    23:00 +15°C° 0 mm 2 mps 748 mmHg 94%

    21 July, Sunday

    Time Temperature Precipitation Wind Pressure Humidity
    00:00 +14°C° 0 mm 2 mps 749 mmHg 94%
    01:00 +14°C° 0 mm 2 mps 749 mmHg 93%
    02:00 +14°C° 0 mm 2 mps 749 mmHg 93%
    03:00 +14°C° 0 mm 2 mps 749 mmHg 93%
    04:00 +13°C° 0 mm 2 mps 749 mmHg 93%
    05:00 +13°C° 0 mm 1 mps 749 mmHg 93%
    06:00 +15°C° 0 mm 2 mps 749 mmHg 87%
    07:00 +17°C° 0 mm 2 mps 749 mmHg 82%
    08:00 +19°C° 0 mm 2 mps 749 mmHg 76%
    09:00 +20°C° 0 mm 2 mps 749 mmHg 71%
    10:00 +23°C° 0 mm 2 mps 749 mmHg 65%
    11:00 +24°C° 0 mm 3 mps 749 mmHg 60%
    12:00 +25°C° 0 mm 3 mps 749 mmHg 58%
    13:00 +25°C° 0 mm 3 mps 749 mmHg 57%
    14:00 +26°C° 0 mm 3 mps 749 mmHg 55%
    15:00 +25°C° 0 mm 2 mps 749 mmHg 57%
    16:00 +25°C° 0 mm 2 mps 749 mmHg 59%
    17:00 +25°C° 0 mm 2 mps 748 mmHg 62%
    18:00 +23°C° 0 mm 2 mps 748 mmHg 69%
    19:00 +21°C° 0 mm 1 mps 748 mmHg 77%
    20:00 +19°C° 0 mm 1 mps 748 mmHg 85%
    21:00 +19°C° 0 mm 1 mps 748 mmHg 86%
    22:00 +18°C° 0 mm 1 mps 748 mmHg 88%
    23:00 +16°C° 0 mm 1 mps 748 mmHg 90%

    22 July, Monday

    Time Temperature Precipitation Wind Pressure Humidity
    00:00 +16°C° 0 mm 1 mps 748 mmHg 91%
    01:00 +16°C° 0 mm 1 mps 748 mmHg 92%
    02:00 +15°C° 0 mm 1 mps 747 mmHg 93%
    03:00 +16°C° 0 mm 1 mps 747 mmHg 93%
    04:00 +16°C° 0 mm 2 mps 747 mmHg 92%
    05:00 +16°C° 0 mm 2 mps 747 mmHg 92%
    06:00 +17°C° 0 mm 2 mps 746 mmHg 87%
    07:00 +19°C° 0 mm 2 mps 746 mmHg 83%
    08:00 +20°C° 0 mm 2 mps 746 mmHg 78%
    09:00 +21°C° 0.5 mm 2 mps 746 mmHg 79%
    10:00 +21°C° 0.5 mm 2 mps 746 mmHg 81%
    11:00 +23°C° 0.5 mm 2 mps 746 mmHg 82%
    12:00 +22°C° 0.4 mm 1 mps 746 mmHg 84%
    13:00 +22°C° 0.4 mm 1 mps 746 mmHg 85%
    14:00 +21°C° 0.4 mm 1 mps 746 mmHg 87%
    15:00 +21°C° 0.1 mm 1 mps 746 mmHg 88%
    16:00 +18°C° 0.1 mm 0 mps 746 mmHg 89%
    17:00 +18°C° 0.1 mm 0 mps 746 mmHg 90%
    18:00 +17°C° 0 mm 0 mps 746 mmHg 90%
    19:00 +17°C° 0 mm 0 mps 746 mmHg 90%
    20:00 +17°C° 0 mm 0 mps 746 mmHg 90%
    21:00 +16°C° 0 mm 0 mps 746 mmHg 91%
    22:00 +16°C° 0 mm 0 mps 746 mmHg 92%
    23:00 +15°C° 0 mm 0 mps 746 mmHg 93%

    23 July, Tuesday

    Time Temperature Precipitation Wind Pressure Humidity
    00:00 +16°C° 0 mm 1 mps 746 mmHg 94%
    01:00 +15°C° 0 mm 1 mps 746 mmHg 95%
    02:00 +15°C° 0 mm 1 mps 746 mmHg 95%
    03:00 +15°C° 0 mm 1 mps 747 mmHg 96%
    04:00 +15°C° 0 mm 1 mps 747 mmHg 96%
    05:00 +15°C° 0 mm 1 mps 747 mmHg 97%
    06:00 +17°C° 0 mm 2 mps 747 mmHg 91%
    07:00 +18°C° 0 mm 2 mps 747 mmHg 85%
    08:00 +20°C° 0 mm 2 mps 747 mmHg 79%
    09:00 +21°C° 0 mm 2 mps 747 mmHg 70%
    10:00 +24°C° 0 mm 3 mps 747 mmHg 62%
    11:00 +25°C° 0 mm 3 mps 748 mmHg 53%
    12:00 +25°C° 0 mm 3 mps 747 mmHg 52%
    13:00 +25°C° 0 mm 3 mps 747 mmHg 50%
    14:00 +25°C° 0 mm 4 mps 747 mmHg 49%
    15:00 +25°C° 0 mm 4 mps 747 mmHg 52%
    16:00 +23°C° 0 mm 4 mps 747 mmHg 55%
    17:00 +23°C° 0 mm 4 mps 747 mmHg 58%
    18:00 +21°C° 0 mm 3 mps 747 mmHg 64%
    19:00 +19°C° 0 mm 3 mps 747 mmHg 71%
    20:00 +17°C° 0 mm 2 mps 747 mmHg 77%
    21:00 +16°C° 0 mm 2 mps 747 mmHg 79%
    22:00 +15°C° 0 mm 2 mps 747 mmHg 81%
    23:00 +15°C° 0 mm 2 mps 747 mmHg 83%
    Show more